Гольтявино

Россия / Красноярский край     58°26′00″N   98°26′12″E
темп.,
°C
ветер,
м/с
пор.,
м/с
влажн.,
%
обл.,
%
осадки,
мм/ч
давл.,
гПа
погр.,
м
19 мая, ср
ср1901:00−1ссв11535 0.0 100810
04:00−3ссв11605 0.0 100910
07:00+3св23395 0.0 1009397
10:00+7св32285 0.0 10081924
13:00+10ссв322442 0.0 10062556
16:00+10ссв322384 0.0 10052620
19:00+9св232837 0.0 1005815
22:00+2всв2447100 0.0 100758
20 мая, чт
чт2001:00+1св2956100 0.0 1008282
04:00+1св2366100 0.0 100981
07:00+5св254943 0.0 1009422
10:00+9всв443210 0.0 10092105
13:00+11св442595 0.0 10092686
16:00+12св3424100 0.0 10092646
19:00+10св473399 0.0 1010954
22:00+5ссв2352100 0.0 101259
21 мая, пт
пт2101:00+2с226481 0.0 101346
04:000с2279100 0.0 101331
07:00+5с355986 0.0 1014393
10:00+11с4436100 0.0 10131216
13:00+14ссв3427100 0.0 10132753
16:00+14ссз4526100 0.0 10122666
19:00+12с2436100 0.0 1013245
22:00+6с27536 0.0 1015122
22 мая, сб
сб2201:00+3ссз217596 0.1 101712
04:00+1сз21865 0.1 101714
07:00+7ссз24625 0.1 1018391
10:00+11ссз4537100 0.0 10172417
13:00+12сз353699 0.0 10162058
16:00+14ссз3530100 0.0 10152616
19:00+12сз3535100 0.0 1016727
22:00+7з2249100 0.0 101618
23 мая, вс
вс2301:00+6зсз1155100 0.0 101716
04:00+4з2264100 0.0 101834
07:00+8ссз3651100 0.0 1018484
10:00+10ссз355899 0.0 10181354
13:00+11ссз3656100 0.4 10171604
16:00+11сз3657100 0.3 10171544
19:00+10сз2571100 0.4 1017359
22:00+7зсз2596100 0.8 1018281